Theta_e
325 331 330 325 325 327 328 330 330 326 323 321 319 317 316 315 314 316 318 318 319 319 318 320 323 324 324 324 323 323 322 323 323 322 322 321 320 322 330 325 313 316 328
326 325 325 325 327 328 330 330 326 323 322 318 316 315 313 314 317 318 318 318 318 319 320 321 322 321 320 319 319 319 319 320 320 321 321 322 323 320 325 328 327 316 316
326 324 325 326 328 330 328 325 323 320 315 313 313 312 313 315 316 316 316 317 318 318 319 318 318 318 318 318 318 319 320 319 319 320 319 320 321 323 321 324 327 326 319
326 325 325 327 329 327 324 320 318 314 311 311 312 313 314 314 314 314 316 317 317 317 318 317 317 317 317 317 318 319 319 319 319 318 320 320 319 322 323 321 321 322 321
328 326 326 328 327 324 318 316 313 311 311 312 313 313 314 313 314 314 315 316 316 316 315 315 315 315 314 316 317 318 318 318 318 318 318 321 321 321 322 323 322 322 323
330 328 328 326 322 318 316 311 311 310 312 313 312 312 312 313 313 314 314 314 313 313 313 312 313 313 313 313 314 316 316 316 317 317 318 319 320 320 320 322 323 323 323
329 328 326 321 318 313 310 311 311 312 313 311 312 312 312 312 314 311 312 313 313 312 312 313 313 313 312 312 312 313 315 316 316 317 317 318 318 319 319 320 323 324 322
328 326 318 315 312 311 309 310 313 312 312 312 311 311 311 311 311 311 311 311 311 312 313 313 313 312 312 312 312 312 313 314 315 317 317 318 317 318 319 318 319 322 324
322 316 315 315 313 312 310 312 312 313 313 312 311 311 312 312 311 310 310 311 311 311 311 312 312 313 313 314 314 313 313 313 314 316 315 316 317 317 318 320 319 319 319
316 316 315 315 314 312 311 311 312 313 313 313 312 312 312 312 311 311 311 310 311 310 311 312 312 313 314 315 315 314 314 313 314 314 314 314 314 317 317 319 320 320 319
316 316 315 314 313 311 310 310 311 311 311 312 312 311 311 311 311 311 310 310 311 310 311 311 311 311 313 313 314 314 315 314 314 314 314 314 313 313 315 316 318 318 318
313 313 313 312 311 310 309 310 310 311 310 310 310 310 310 311 312 311 310 310 309 308 311 310 311 311 311 312 313 314 316 315 316 315 315 313 313 313 314 314 316 317 318
311 311 311 310 308 308 309 310 309 311 310 309 308 308 308 310 310 311 311 308 307 307 308 308 309 311 311 313 313 313 314 316 316 316 316 315 315 315 313 314 314 315 316
305 304 303 304 306 308 308 309 308 308 307 307 307 307 307 308 308 308 310 307 306 305 306 305 309 311 311 312 312 312 312 316 316 316 316 316 316 316 316 315 314 315 318
301 302 305 307 308 308 309 309 309 308 308 308 308 306 305 307 308 307 308 306 305 305 305 305 306 310 311 312 311 310 310 314 316 317 317 317 317 317 317 316 316 316 315
303 305 307 308 309 308 309 308 307 307 307 307 307 305 307 307 307 306 306 304 304 303 305 304 306 309 309 311 311 310 308 313 317 316 317 317 317 320 320 319 320 318 316
304 304 305 306 307 307 307 306 306 306 306 306 305 302 305 306 306 306 305 303 303 303 302 303 305 307 309 311 310 309 307 313 316 317 317 318 318 319 322 321 321 321 317
304 306 306 306 307 307 306 306 305 304 302 300 300 304 305 305 306 306 304 303 302 302 301 301 303 306 307 309 307 307 307 311 315 316 317 318 318 320 323 323 322 322 320
307 306 306 306 307 306 306 301 302 301 301 302 303 303 305 306 306 304 303 303 302 301 300 302 303 304 305 308 306 306 305 307 314 316 316 317 318 319 321 324 324 325 324
307 307 306 307 306 306 305 304 303 303 302 302 302 303 302 302 302 303 304 303 302 301 301 302 303 304 305 306 305 305 304 304 312 315 316 315 316 319 321 323 324 325 325
308 307 306 307 307 306 305 305 305 303 303 302 301 301 301 301 301 302 303 303 302 301 300 299 302 304 304 305 304 303 303 306 309 313 314 315 315 317 320 322 325 325 325
308 307 307 306 307 307 306 305 305 305 303 302 302 301 300 300 300 300 300 300 300 299 298 298 300 302 303 303 303 303 304 306 306 311 312 313 314 314 318 320 322 326 326
306 306 306 306 307 306 306 306 306 305 303 302 302 301 300 299 300 300 300 299 299 299 298 298 298 299 301 303 303 304 305 307 305 311 312 313 313 312 315 318 321 324 325
305 305 306 306 306 306 307 308 306 304 303 301 300 299 298 299 300 299 299 299 299 298 297 298 298 297 298 301 304 305 305 307 306 311 311 312 312 312 313 315 318 319 321
305 305 306 306 307 307 308 306 304 303 301 300 299 298 298 298 298 298 297 297 298 298 298 298 297 298 300 302 304 305 307 306 305 309 310 311 311 311 311 312 314 316 318
305 306 305 304 308 305 304 303 303 301 301 301 300 298 297 296 296 296 296 297 297 297 296 297 297 298 301 303 305 305 306 306 305 307 308 310 310 311 311 310 311 313 314
Wind_Speed
15 13 14 15 15 17 19 21 26 32 33 34 33 31 31 33 30 26 24 24 24 28 28 22 21 19 17 18 20 23 24 24 26 29 31 32 31 35 31 33 35 36 31
16 14 12 13 17 19 20 24 29 34 35 33 31 32 32 28 24 22 24 26 26 21 21 16 18 22 27 29 30 30 29 28 29 28 31 31 30 33 36 33 34 37 39
16 13 14 16 17 19 23 27 31 32 33 30 33 30 26 25 25 26 26 21 19 20 23 23 30 30 26 29 29 28 28 30 30 29 30 32 31 32 36 38 37 36 39
16 13 16 19 20 23 27 28 30 31 29 30 31 24 23 22 18 17 12 13 17 21 23 26 27 29 32 33 26 25 25 25 27 29 27 26 31 30 33 36 39 40 39
22 22 22 22 24 27 26 28 29 28 29 26 22 20 22 22 10 13 15 16 19 23 27 28 28 26 25 22 22 23 24 25 27 26 30 26 24 32 33 32 36 36 35
25 23 20 22 23 25 25 26 25 26 22 20 20 20 23 11 9 10 18 19 16 16 21 24 23 22 24 27 26 25 24 25 25 27 24 27 27 25 32 29 33 35 34
20 20 21 23 22 22 22 22 24 23 20 21 22 26 23 13 2 24 18 15 21 22 22 21 18 20 20 20 22 23 23 24 23 24 24 27 28 28 28 32 29 29 31
18 21 22 20 19 20 22 22 18 20 20 21 22 19 18 17 16 21 23 24 24 26 26 21 19 15 13 15 15 17 18 20 21 23 24 25 27 28 28 30 35 35 31
19 17 19 19 20 23 22 17 15 16 18 17 16 15 8 9 30 20 31 28 32 31 31 25 17 11 15 17 17 18 20 23 24 23 23 25 26 29 28 28 31 32 38
13 15 16 17 22 24 21 16 13 14 15 17 18 15 18 21 22 22 22 30 31 33 32 27 24 17 15 19 18 20 26 32 36 32 29 26 24 26 26 26 24 28 31
8 7 12 20 23 23 20 16 15 16 16 17 17 20 22 21 22 25 27 26 31 34 30 29 28 26 19 18 22 28 33 32 28 26 31 34 32 30 28 28 26 26 28
8 8 14 20 23 22 17 14 15 16 15 17 17 19 20 22 25 27 29 30 33 37 29 30 27 25 22 22 23 28 25 24 26 26 26 28 29 35 35 32 28 29 28
10 15 18 21 22 17 15 16 18 16 18 20 22 22 21 21 22 24 22 30 35 34 30 29 31 25 26 24 26 30 31 27 26 25 24 25 26 27 29 30 33 32 30
15 16 17 14 14 15 14 14 18 18 17 18 20 20 21 23 22 22 22 27 37 33 25 37 25 25 25 25 27 31 36 29 22 20 22 24 24 26 28 30 31 33 33
14 14 13 13 14 15 16 17 18 19 19 20 17 19 21 23 22 22 21 27 30 28 30 28 35 25 25 24 26 32 37 30 25 24 25 24 23 27 28 30 33 34 35
13 12 11 11 12 13 13 14 16 18 21 21 24 22 17 21 22 23 23 24 26 29 27 34 31 26 24 23 24 31 36 32 23 19 21 23 19 17 18 21 24 27 31
15 15 14 12 12 14 17 20 21 23 26 27 27 20 19 21 22 21 23 23 24 26 32 34 29 26 25 23 26 30 33 29 23 17 19 24 19 21 14 15 17 22 25
14 14 15 14 12 14 17 21 25 30 30 28 20 13 20 21 21 22 24 24 22 24 27 33 29 27 25 24 29 31 31 27 20 15 18 20 20 19 12 10 13 16 20
15 15 14 13 15 17 21 22 24 27 23 16 14 17 18 18 18 24 27 24 22 27 23 25 30 26 26 25 28 28 31 28 18 13 16 18 18 19 17 15 13 14 20
15 20 13 13 16 21 24 26 27 29 27 20 19 20 23 25 24 26 25 23 25 27 26 25 26 28 27 24 24 29 34 30 23 13 14 18 16 15 20 19 9 10 13
17 21 17 14 19 20 25 28 28 28 30 26 23 24 24 24 23 22 22 22 24 26 28 29 28 24 22 24 26 27 30 31 26 13 16 17 18 18 19 21 19 15 3
17 22 20 18 20 21 24 26 29 26 28 28 25 30 26 26 25 25 24 26 24 22 26 26 23 20 21 22 25 24 26 28 33 18 17 13 17 16 20 24 24 17 10
19 18 16 17 20 24 24 26 25 26 29 28 25 31 31 29 23 25 26 25 26 25 25 21 20 23 20 20 23 21 21 23 27 21 12 9 13 14 17 23 22 16 16
16 13 17 20 21 23 26 21 19 26 31 31 32 31 24 24 23 26 27 28 31 28 17 18 20 25 21 21 18 20 18 19 20 9 11 4 7 9 12 19 23 25 22
14 17 22 28 29 25 17 15 22 30 32 33 31 26 21 21 23 26 29 27 23 22 18 18 18 15 8 13 15 14 11 15 19 15 10 3 3 6 8 14 18 20 23
19 22 18 22 14 17 20 23 28 31 31 29 29 26 21 21 24 22 22 22 20 20 21 18 14 13 7 6 3 2 6 12 15 10 12 7 3 1 3 8 14 16 17
Wind_Direction
235 245 253 265 272 278 290 300 306 310 315 311 309 309 307 303 304 304 306 299 294 293 299 303 304 295 291 285 287 287 287 284 281 279 279 279 269 243 249 256 250 244 244
245 252 261 264 272 284 294 300 308 313 314 312 309 304 307 306 301 299 294 294 297 302 300 295 294 291 291 290 294 293 290 289 287 282 278 273 268 258 242 249 253 248 241
259 260 269 274 286 295 301 307 310 311 311 312 307 308 307 301 304 302 299 302 301 302 302 296 293 293 295 293 292 292 288 284 282 281 276 273 265 263 251 242 246 249 246
265 294 299 292 298 302 307 311 311 313 314 315 312 313 309 310 312 315 322 304 308 305 296 294 294 293 288 287 295 293 290 285 279 271 278 279 267 259 256 249 247 251 253
308 304 296 300 303 306 313 312 316 320 321 320 323 321 322 328 328 318 322 314 305 300 298 296 294 293 295 303 295 294 292 287 284 283 269 283 272 262 257 253 249 246 247
297 297 299 303 303 312 315 319 322 326 328 330 336 333 331 351 309 338 326 315 317 319 311 305 302 293 294 296 298 297 291 295 287 277 275 270 269 268 258 257 250 247 246
300 301 305 305 313 320 325 330 328 337 343 346 349 341 351 10 10 336 341 348 340 344 349 331 317 302 312 322 315 308 301 299 294 288 285 276 273 272 261 256 253 244 243
305 309 310 312 326 331 333 333 341 344 348 350 349 350 342 349 324 341 352 357 356 348 353 348 334 326 320 324 329 329 318 311 301 290 290 280 274 272 266 255 252 249 245
313 320 320 324 331 337 335 334 336 334 338 344 349 338 325 307 325 330 338 346 349 353 352 354 353 340 333 325 323 313 316 315 303 292 294 282 277 275 271 262 250 250 249
334 339 324 323 327 332 333 337 325 325 323 330 335 338 330 315 313 320 327 337 339 345 349 354 357 333 321 335 316 305 301 300 302 288 288 286 282 274 273 266 256 250 249
0 331 297 311 318 324 330 327 335 331 327 327 326 330 327 327 325 323 315 326 331 337 339 346 351 347 334 318 315 310 307 307 306 295 283 283 277 277 273 267 262 258 253
305 303 299 303 312 317 326 327 322 329 330 331 327 326 326 324 318 320 316 323 331 331 333 333 345 350 349 340 334 334 322 321 316 305 297 289 279 269 272 262 262 257 253
292 286 294 304 308 318 318 322 318 319 320 321 324 325 325 323 325 317 313 326 329 332 328 329 330 343 346 338 337 340 331 317 313 309 306 296 288 281 272 262 255 251 251
316 309 310 325 337 322 316 314 330 323 325 324 317 321 323 318 322 323 322 329 327 323 324 327 327 333 339 339 341 338 338 324 319 316 317 310 297 284 275 268 258 248 248
332 339 347 348 351 355 344 322 319 329 327 316 321 318 318 317 311 319 318 321 326 321 324 331 322 332 338 332 340 337 335 324 314 306 314 324 316 292 272 262 256 252 246
348 348 349 345 346 343 335 319 318 312 309 308 311 309 313 314 311 308 309 317 316 319 313 323 326 327 336 333 334 332 336 329 320 311 321 331 342 315 287 272 264 252 243
347 346 346 337 326 324 320 322 320 313 309 307 311 305 311 315 311 309 319 321 317 319 318 318 322 328 331 339 331 326 336 332 319 318 327 334 338 344 300 275 263 251 243
348 0 2 8 344 333 336 331 323 319 318 318 321 316 324 324 316 311 316 321 317 321 319 318 320 324 336 336 328 326 334 339 325 325 334 344 349 347 333 319 280 262 243
358 354 355 347 332 334 338 349 6 5 357 355 355 331 331 329 323 318 316 314 317 325 328 323 320 323 329 328 327 330 340 343 341 340 339 336 352 359 13 358 297 269 249
345 347 341 332 330 337 344 353 358 2 8 2 349 337 333 331 324 314 310 310 317 324 331 321 323 322 325 326 332 334 336 342 346 354 0 354 2 359 15 7 346 308 246
335 338 340 325 327 332 338 345 345 352 348 354 355 340 327 325 321 315 315 313 321 322 323 321 316 328 324 331 337 337 336 336 348 353 359 354 1 12 13 18 24 19 126
329 330 332 328 320 328 333 342 337 337 341 341 334 337 332 327 324 316 315 316 317 324 324 320 307 319 320 322 325 329 333 339 340 351 347 358 357 13 36 28 19 32 65
322 332 340 335 323 329 335 332 327 330 333 340 325 327 329 324 319 317 314 311 313 317 319 316 316 304 311 310 321 319 325 330 333 333 340 348 357 22 43 48 36 45 73
337 350 347 346 333 336 330 316 319 325 332 340 336 331 334 332 326 319 317 309 313 316 312 308 302 313 292 302 298 307 309 319 336 349 338 325 357 35 55 66 68 66 79
356 346 340 333 325 319 319 326 326 333 343 343 345 344 337 333 323 319 320 322 324 322 312 316 311 308 288 280 286 299 312 327 343 347 347 326 326 57 71 74 73 76 80
347 347 354 349 2 352 346 337 340 342 340 345 352 5 2 353 341 336 328 325 322 332 319 322 324 314 280 288 21 6 359 341 342 354 349 333 222 30 62 80 87 84 77